User: anonymous   Login
Location: Wildlife_Club
(35.6000°N, 81.4330°W)
Time: 18:45:30
(UTC-04:00)
Language:

Cosmos 1782 - Orbit

View from above orbital plane
View from above orbital plane
View from above satellite
View from above satellite

Ground track
Ground track

The orbit data is extracted from the following two-line orbital elements,

1 16986U 86074A   18113.65461127  .00001057  00000-0  68914-4 0  9996
2 16986  82.5082 179.1454 0011685   7.5923 352.5480 15.06837060717609
Epoch (UTC): 23 April 2018 15:42:38
Eccentricity: 0.0011685
inclination: 82.5082°
perigee height: 538 km
apogee height: 554 km
right ascension of ascending node: 179.1454°
argument of perigee: 7.5923°
revolutions per day: 15.06837060
mean anomaly at epoch: 352.5480°
orbit number at epoch: 71760

The dashed part of the orbit path shows where the satellite is in the earth's shadow,  

DLR